Regional Weather Roundup
Issued by NWS

Home | Current Version | Previous Version | Text Only | Print | Product List | Glossary On
Versions: 1 2 3 4 5 6 7 8 9 10 11 12 13 14 15 16 17 18 19 20 21 22 23 24 25 26 27 28 29 30 31 32 33 34 35 36 37 38 39 40 41 42 43 44 45 46 47 48 49 50
039
ASUS43 KMKX 220120
RWRWI

WISCONSIN REGIONAL WEATHER ROUNDUP
NATIONAL WEATHER SERVICE MILWAUKEE/SULLIVAN WI
800 PM CDT SAT APR 21 2018

NOTE: "FAIR" INDICATES FEW OR NO CLOUDS BELOW 12,000 FEET WITH NO
SIGNIFICANT WEATHER AND/OR OBSTRUCTIONS TO VISIBILITY.

WIZ001-002-006>008-014>016-023>028-220200-
NORTHWEST WISCONSIN

CITY           SKY/WX    TMP DP  RH WIND       PRES   REMARKS
SUPERIOR ARPT  FAIR      41  23  47 CALM      30.32S
ASHLAND        FAIR      36  28  73 N5        30.35R WCI  32
HAYWARD        FAIR      50  29  44 CALM      30.33R
SIREN          FAIR      52  16  23 CALM      30.34R
CUMBERLAND     FAIR      45  10  24 CALM      30.34S
RICE LAKE      FAIR      49  17  28 CALM      30.35S
CHETEK         FAIR      47  19  33 CALM      30.34S
LADYSMITH      FAIR      51  20  29 CALM      30.35S
EAU CLAIRE     FAIR      54  30  40 W5        30.33R
MENOMONIE      FAIR      53  30  41 CALM      30.34R
NEW RICHMOND   FAIR      49  31  48 NE3       30.34R
OSCEOLA        FAIR      53  17  23 CALM      30.36S
$$

WIZ003>005-009-010-017-018-220200-
NORTH CENTRAL WISCONSIN

CITY           SKY/WX    TMP DP  RH WIND       PRES   REMARKS
MANITOWISH WTR FAIR      44  19  36 CALM      30.32S
ARBOR VITAE    FAIR      49  13  23 CALM      30.32S
WOODRUFF       FAIR      49  13  23 CALM      30.32S
RHINELANDER    FAIR      49  20  31 CALM      30.33R
EAGLE RIVER    FAIR      45   9  22 CALM      30.31S
LAND O LAKES   FAIR      50  15  25 NE6       30.34R
PHILLIPS       FAIR      43  23  45 CALM      30.33R
TOMAHAWK       FAIR      44  21  39 CALM      30.33S
MEDFORD        FAIR      46  28  49 S5        30.34R
MERRILL          N/A     46  27  48 CALM      30.35R
$$

WIZ029-030-035-036-043>047-220200-
CENTRAL WISCONSIN

CITY           SKY/WX    TMP DP  RH WIND       PRES   REMARKS
WAUSAU         FAIR      51  24  34 W5        30.33R
MOSINEE        PTCLDY    48  25  40 CALM      30.36R
MARSHFIELD     FAIR      51  27  39 CALM      30.33R
STEVENS POINT  FAIR      47  27  45 CALM      30.35S
WAUPACA        FAIR      49  28  45 S3        30.36S
WAUTOMA        FAIR      46  30  53 CALM      30.36R
WISC RAPIDS    FAIR      50  25  37 SW5       30.35S
CAMP DOUGLAS   CLOUDY    51  30  44 S3        30.36R
$$

WIZ011>013-019>022-031-037>040-048>050-220200-
NORTHEAST WISCONSIN

CITY           SKY/WX    TMP DP  RH WIND       PRES   REMARKS
ANTIGO         FAIR      46  27  47 W5        30.34R
SHAWANO        FAIR      43  28  56 CALM      30.35R
OCONTO         FAIR      47  21  36 S3        30.35R
STURGEON BAY   FAIR      45  23  42 S7        30.37R
GREEN BAY      FAIR      47  25  42 S6        30.36R
MANITOWOC      FAIR      41  25  53 CALM      30.38R
APPLETON       PTCLDY    48  25  40 S5        30.34S
CLINTONVILLE   FAIR      47  22  38 S3        30.35R
OSHKOSH        FAIR      45  32  60 CALM      30.36R
$$

WIZ032>034-041-042-053>061-220200-
SOUTHWEST WISCONSIN

CITY           SKY/WX    TMP DP  RH WIND       PRES   REMARKS
LA CROSSE      CLOUDY    55  32  41 SE5       30.35R
SPARTA         FAIR      47  30  52 SE5       30.37R
VIROQUA        CLOUDY    49  33  54 CALM      30.35S
BOSCOBEL       FAIR      52  37  56 CALM      30.35S
PRAIRIE DU CHI FAIR      54  28  36 CALM      30.35R
PLATTEVILLE    FAIR      51  37  60 E5        30.36R
$$

WIZ056-057-062-063-064-067-068-220200-
SOUTH CENTRAL WISCONSIN

CITY           SKY/WX    TMP DP  RH WIND       PRES   REMARKS
REEDSBURG      CLOUDY    51  30  44 CALM      30.36S
BARABOO/DELLS  FAIR      47  26  43 CALM      30.37R
LONE ROCK      CLOUDY    52  37  56 NE6       30.36R
MINERAL POINT  MOCLDY    52  34  50 CALM      30.35S
MADISON        MOCLDY    50  33  52 E3        30.37R
MIDDLETON      CLOUDY    52  32  46 E5        30.37R
WATERTOWN      FAIR      42  32  67 CALM      30.37R
MONROE         FAIR      50  32  50 E6        30.35S
JANESVILLE     MOCLDY    50  32  50 NE6       30.36R
$$

WIZ051-052-058>065-066-070>072-220200-
SOUTHEAST WISCONSIN

CITY           SKY/WX    TMP DP  RH WIND       PRES   REMARKS
MILWAUKEE      MOCLDY    45  16  31 S3        30.39R
WAUKESHA       CLEAR     46  25  42 CALM      30.38R
MILWAUKEE/TIMM MOCLDY    48  10  21 SE5       30.38R
RACINE         CLOUDY    42  23  46 CALM      30.40R
BURLINGTON     CLOUDY    48  24  38 E5        30.38R
KENOSHA        CLOUDY    43  24  47 E6        30.38R
FOND DU LAC    FAIR      44  29  55 S3        30.36R
SHEBOYGAN      FAIR      47  24  40 SE5       30.37R
WEST BEND      FAIR      46  19  34 E3        30.38R
JUNEAU         CLOUDY    46  31  54 CALM      30.38R
$$

LSZ147-162-220200-
LAKE SUPERIOR

STATION/POSITION TIME  TEMP    WIND        PRES    WAVE
                       AIR SEA DIR/SP/G            HT/PER
                 (UTC) (F)     (DEG/KT/KT) (MB)    (FT/S)
DEVILS ISLAND    0100   47     120/  5/  6 1027.8F
SAXON HARBOR     0040   40     290/  5/  7 1026.4S
$$

LMZ867-665-643>646-220200-
LAKE MICHIGAN

STATION/POSITION TIME  TEMP    WIND        PRES    WAVE
                       AIR SEA DIR/SP/G            HT/PER
                 (UTC) (F)     (DEG/KT/KT) (MB)    (FT/S)
NORTHPORT PIER   0040   47                 1027.4S
KEWAUNEE LAKESHO 0054   40     180/  1/  3 1027.5R
SHEBOYGAN LAKESH 0100   42     180/  4/  5 1029.0R
PORT WASHINGTON  0030   42      CALM  /  2 1029.1S
MILWAUKEE LAKESH 0100   42     150/  4/  5   N/A
KENOSHA   LAKESH 0100   43                 1028.4
$$

TC  - TEMPERATURE IN CELSIUS
VSB - VISIBILITY IN STATUTE MILES
WCI - WIND CHILL INDEX
HX  - HEAT INDEX





USA.gov is the U.S. government's official web portal to all federal, state and local government web resources and services.